EW1895 Weather Reports


Display with metric or nautical units.
time (UTC)temp
F
wind
direction
speed
MPH
gust
MPH
rain 1hr
in
rain 24hr
in
rain mn
in
humidity
%
barometer
mb
20260903223155 90 5 0.0 0.0 0.00 0.00 0.00 70 1013.7
20260903221551 91 5 0.0 0.0 0.00 0.00 0.00 68 1013.7
20260903220116 92 5 0.0 0.0 0.00 0.00 0.00 66 1013.9
20260903214548 92 5 0.0 0.0 0.00 0.00 0.00 66 1014.0
20260903213150 93 5 0.0 0.0 0.00 0.00 0.00 63 1014.0
20260903211552 94 5 0.0 0.0 0.00 0.00 0.00 62 1014.2
20260903210056 95 5 0.0 0.0 0.00 0.00 0.00 60 1014.2
20260903204546 96 5 0.0 0.0 0.00 0.00 0.00 60 1014.3
20260903203145 96 5 0.0 0.0 0.00 0.00 0.00 56 1014.6
20260903201544 96 5 0.0 0.0 0.00 0.00 0.00 57 1014.7
20260903200044 97 5 0.0 0.0 0.00 0.00 0.00 58 1014.7
20260903194543 97 5 0.0 0.0 0.00 0.00 0.00 55 1014.9
20260903193142 98 5 0.0 0.0 0.00 0.00 0.00 53 1015.3
20260903191539 98 5 0.0 0.0 0.00 0.00 0.00 54 1015.4
20260903190037 98 5 0.0 5.0 0.00 0.00 0.00 52 1015.5
20260903184533 97 344 0.0 0.0 0.00 0.00 0.00 56 1015.9
20260903183130 96 344 0.0 0.0 0.00 0.00 0.00 57 1016.0
20260903181529 96 344 0.0 1.0 0.00 0.00 0.00 59 1016.1
20260903180032 96 344 0.0 0.0 0.00 0.00 0.00 58 1016.4
20260903174526 95 344 0.0 0.0 0.00 0.00 0.00 59 1016.7
20260903173123 94 344 0.0 0.0 0.00 0.00 0.00 60 1016.6
20260903171527 93 344 0.0 0.0 0.00 0.00 0.00 62 1016.7
20260903170032 92 335 0.0 2.0 0.00 0.00 0.00 64 1017.0
20260903164520 92 341 0.0 0.0 0.00 0.00 0.00 63 1017.1
20260903163111 92 26 0.0 1.0 0.00 0.00 0.00 64 1017.4
20260903161507 90 26 0.0 0.0 0.00 0.00 0.00 68 1017.4
20260903160005 89 26 0.0 1.0 0.00 0.00 0.00 68 1017.4
20260903154503 89 328 0.0 0.0 0.00 0.00 0.00 70 1017.5
20260903153101 87 324 0.0 4.0 0.00 0.00 0.00 73 1017.6
20260903151557 86 286 0.0 1.0 0.00 0.00 0.00 75 1017.6
20260903150109 86 119 0.0 2.0 0.00 0.00 0.00 75 1017.5
20260903144601 86 329 0.0 5.0 0.00 0.00 0.00 75 1017.4
20260903143050 85 152 0.0 5.0 0.00 0.00 0.00 76 1017.3
20260903141547 85 87 0.0 3.0 0.00 0.00 0.00 78 1017.3
20260903140043 83 173 0.0 2.0 0.00 0.00 0.00 80 1017.1
20260903134547 81 173 0.0 2.0 0.00 0.00 0.00 86 1017.2
20260903133038 78 170 0.0 0.0 0.00 0.00 0.00 94 1016.8
20260903131532 76 170 0.0 0.0 0.00 0.00 0.00 96 1017.1
20260903130028 75 170 0.0 0.0 0.00 0.00 0.00 96 1017.2
20260903124530 75 170 0.0 0.0 0.00 0.00 0.00 96 1017.4
20260903123033 74 170 0.0 0.0 0.00 0.00 0.00 96 1017.4
20260903121527 73 170 0.0 0.0 0.00 0.00 0.00 96 1017.4
20260903120025 73 170 0.0 0.0 0.00 0.00 0.00 96 1017.4
20260903114521 72 170 0.0 0.0 0.00 0.00 0.00 96 1017.2
20260903113019 72 170 0.0 0.0 0.00 0.00 0.00 95 1017.0
20260903111518 71 170 0.0 0.0 0.00 0.00 0.00 95 1016.9
20260903110017 72 170 0.0 0.0 0.00 0.00 0.00 95 1016.8
20260903104514 72 170 0.0 0.0 0.00 0.00 0.00 95 1016.7
20260903103014 72 170 0.0 0.0 0.00 0.00 0.00 95 1016.5
20260903101513 72 170 0.0 0.0 0.00 0.00 0.00 95 1016.7
20260903100012 72 170 0.0 0.0 0.00 0.00 0.00 95 1016.5
20260903094511 73 170 0.0 0.0 0.00 0.00 0.00 95 1016.7
20260903093010 73 170 0.0 0.0 0.00 0.00 0.00 95 1016.7
20260903091513 73 170 0.0 0.0 0.00 0.00 0.00 95 1016.4
20260903090016 73 170 0.0 0.0 0.00 0.00 0.00 95 1016.4
20260903084522 73 170 0.0 0.0 0.00 0.00 0.00 95 1016.2
20260903083006 73 170 0.0 0.0 0.00 0.00 0.00 95 1016.1
20260903081506 73 170 0.0 0.0 0.00 0.00 0.00 95 1015.9
20260903080005 73 170 0.0 0.0 0.00 0.00 0.00 94 1016.1
20260903074502 73 170 0.0 0.0 0.00 0.00 0.00 95 1016.3
20260903073001 73 170 0.0 0.0 0.00 0.00 0.00 94 1016.5
20260903071504 73 170 0.0 0.0 0.00 0.00 0.00 94 1016.6
20260903070002 73 170 0.0 0.0 0.00 0.00 0.00 94 1016.6
20260903064502 73 170 0.0 0.0 0.00 0.00 0.00 94 1016.6
20260903063111 74 170 0.0 0.0 0.00 0.00 0.00 94 1016.7
20260903061558 74 170 0.0 0.0 0.00 0.00 0.00 94 1016.6
20260903060055 74 170 0.0 0.0 0.00 0.00 0.00 94 1016.7
20260903054554 74 170 0.0 0.0 0.00 0.00 0.00 94 1016.8
20260903053112 75 170 0.0 0.0 0.00 0.00 0.00 93 1016.9
20260903051552 75 170 0.0 0.0 0.00 0.00 0.00 93 1017.3
20260903044600 75 170 0.0 0.0 0.00 0.00 0.00 94 1017.5
20260903043107 75 170 0.0 0.0 0.00 0.00 0.00 94 1017.3
20260903041554 75 170 0.0 0.0 0.00 0.00 0.00 93 1017.1
20260903040053 76 170 0.0 0.0 0.00 0.00 0.00 93 1016.8
20260903034555 76 170 0.0 0.0 0.00 0.00 0.00 93 1016.8
20260903033050 76 170 0.0 0.0 0.00 0.00 0.00 92 1016.7
20260903031606 76 170 0.0 0.0 0.00 0.00 0.00 92 1016.6
20260903030049 76 170 0.0 0.0 0.00 0.00 0.00 92 1016.5
20260903024548 77 170 0.0 0.0 0.00 0.00 0.00 91 1016.9
20260903023047 77 170 0.0 0.0 0.00 0.00 0.00 91 1016.9
20260903021553 77 170 0.0 0.0 0.00 0.00 0.00 90 1016.8
20260903020047 78 170 0.0 0.0 0.00 0.00 0.00 90 1017.2
20260903014556 78 170 0.0 0.0 0.00 0.00 0.00 89 1017.6
20260903013048 79 170 0.0 0.0 0.00 0.00 0.00 88 1017.3
20260903011547 79 170 0.0 0.0 0.00 0.00 0.00 88 1017.2
20260903010046 80 170 0.0 0.0 0.00 0.00 0.00 86 1017.2
20260903004545 80 170 0.0 0.0 0.00 0.00 0.00 85 1017.0
20260903003045 81 170 0.0 0.0 0.00 0.00 0.00 84 1016.9
20260903001550 82 170 0.0 0.0 0.00 0.00 0.00 83 1016.7
20260903000044 83 170 0.0 0.0 0.00 0.00 0.00 82 1016.7
20260902234544 83 170 0.0 0.0 0.00 0.00 0.00 81 1016.9
20260902233044 84 177 0.0 0.0 0.00 0.00 0.00 79 1016.7
20260902231543 84 177 0.0 0.0 0.00 0.00 0.00 79 1017.0
20260902230043 84 176 0.0 4.0 0.00 0.00 0.00 78 1017.5
20260902224544 84 177 0.0 0.0 0.00 0.00 0.00 77 1017.3